| Back to River Map | <<< Previous Forecast Point | | | Next Forecast Point >>> | Printer Version | Graph Version |  |
|
EEL RIVER - SCOTIA (SCOC1)
| Latitude: 40.49º N | Longitude: 124.1º W | Elevation: 36 Feet | | Forecast Type: Official Location |
| Location: Humboldt County in California | Bulletin Group: North Coast | River Group: North Coast |
| Issuance Time: | May 07 2026 at 8:03 AM PDT | Next Issuance: | May 08 2026 at 9:00 AM PDT
| |
| Action/Monitor: 45.0 Feet | Minor Flood: 51.0 Feet | Moderate Flood: 60.0 Feet | Major Flood: 65.0 Feet |
# Tabular Observed and Forecast Hydrograph Information
#
# Location: Eel River - Scotia (SCOC1)
#
# File Generation Time: 05/07/2026 at 08:03 AM PDT
# Data Interval: 1 Hour
#
# Most Recent Date & Time of Maximum Observed: 05/02/2026 at 09:00 AM PDT
# Maximum Observed Stage: 11.15 Feet
# Maximum Observed Flow: 2244 cfs
#
# Earliest Date & Time of Maximum Forecast: 05/07/2026 at 08:00 AM PDT
# Maximum Forecast Stage: 10.83 Feet
# Maximum Forecast Flow: 1816 cfs
#
# OBSERVED
#
# Date & Time (Local) Stage (Feet) Flow (cfs) Trend Observed Status
# ---------------------------------------------------------------------------------
05/02/2026 08 AM PDT 11.15 2244 Normal
05/02/2026 09 AM PDT 11.15 2244 0 Normal
05/02/2026 10 AM PDT 11.14 2229 - Normal
05/02/2026 11 AM PDT 11.14 2229 0 Normal
05/02/2026 12 PM PDT 11.13 2215 - Normal
05/02/2026 01 PM PDT 11.13 2215 0 Normal
05/02/2026 02 PM PDT 11.13 2215 0 Normal
05/02/2026 03 PM PDT 11.11 2187 - Normal
05/02/2026 04 PM PDT 11.12 2201 + Normal
05/02/2026 05 PM PDT 11.12 2201 0 Normal
05/02/2026 06 PM PDT 11.10 2173 - Normal
05/02/2026 07 PM PDT 11.10 2173 0 Normal
05/02/2026 08 PM PDT 11.11 2187 + Normal
05/02/2026 09 PM PDT 11.10 2173 - Normal
05/02/2026 10 PM PDT 11.10 2173 0 Normal
05/02/2026 11 PM PDT 11.10 2173 0 Normal
05/03/2026 12 AM PDT 11.09 2159 - Normal
05/03/2026 01 AM PDT 11.09 2159 0 Normal
05/03/2026 02 AM PDT 11.08 2145 - Normal
05/03/2026 03 AM PDT 11.08 2145 0 Normal
05/03/2026 04 AM PDT 11.08 2145 0 Normal
05/03/2026 05 AM PDT 11.07 2132 - Normal
05/03/2026 06 AM PDT 11.07 2132 0 Normal
05/03/2026 07 AM PDT 11.06 2118 - Normal
05/03/2026 08 AM PDT 11.06 2118 0 Normal
05/03/2026 09 AM PDT 11.06 2118 0 Normal
05/03/2026 10 AM PDT 11.05 2104 - Normal
05/03/2026 11 AM PDT 11.05 2104 0 Normal
05/03/2026 12 PM PDT 11.04 2091 - Normal
05/03/2026 01 PM PDT 11.04 2091 0 Normal
05/03/2026 02 PM PDT 11.03 2077 - Normal
05/03/2026 03 PM PDT 11.04 2091 + Normal
05/03/2026 04 PM PDT 11.03 2077 - Normal
05/03/2026 05 PM PDT 11.04 2091 + Normal
05/03/2026 06 PM PDT 11.03 2077 - Normal
05/03/2026 07 PM PDT 11.03 2077 0 Normal
05/03/2026 08 PM PDT 11.02 2063 - Normal
05/03/2026 09 PM PDT 11.02 2063 0 Normal
05/03/2026 10 PM PDT 11.03 2077 + Normal
05/03/2026 11 PM PDT 11.02 2063 - Normal
05/04/2026 12 AM PDT 11.02 2063 0 Normal
05/04/2026 01 AM PDT 11.02 2063 0 Normal
05/04/2026 02 AM PDT 11.02 2063 0 Normal
05/04/2026 03 AM PDT 11.02 2063 0 Normal
05/04/2026 04 AM PDT 11.02 2063 0 Normal
05/04/2026 05 AM PDT 11.01 2050 - Normal
05/04/2026 06 AM PDT 11.01 2050 0 Normal
05/04/2026 07 AM PDT 11.01 2050 0 Normal
05/04/2026 08 AM PDT 11.00 2036 - Normal
05/04/2026 09 AM PDT 10.99 2023 - Normal
05/04/2026 10 AM PDT 10.99 2023 0 Normal
05/04/2026 11 AM PDT 10.99 2023 0 Normal
05/04/2026 12 PM PDT 10.98 2010 - Normal
05/04/2026 01 PM PDT 10.98 2010 0 Normal
05/04/2026 02 PM PDT 10.98 2010 0 Normal
05/04/2026 03 PM PDT 10.97 1996 - Normal
05/04/2026 04 PM PDT 10.96 1983 - Normal
05/04/2026 05 PM PDT 10.96 1983 0 Normal
05/04/2026 06 PM PDT 10.97 1996 + Normal
05/04/2026 07 PM PDT 10.97 1996 0 Normal
05/04/2026 08 PM PDT 10.96 1983 - Normal
05/04/2026 09 PM PDT 10.97 1996 + Normal
05/04/2026 10 PM PDT 10.97 1996 0 Normal
05/04/2026 11 PM PDT 10.97 1996 0 Normal
05/05/2026 12 AM PDT 10.98 2010 + Normal
05/05/2026 01 AM PDT 10.97 1996 - Normal
05/05/2026 02 AM PDT 10.97 1996 0 Normal
05/05/2026 03 AM PDT 10.97 1996 0 Normal
05/05/2026 04 AM PDT 10.97 1996 0 Normal
05/05/2026 05 AM PDT 10.96 1983 - Normal
05/05/2026 06 AM PDT 10.96 1983 0 Normal
05/05/2026 07 AM PDT 10.95 1970 - Normal
05/05/2026 08 AM PDT 10.96 1983 + Normal
05/05/2026 09 AM PDT 10.96 1983 0 Normal
05/05/2026 10 AM PDT 10.95 1970 - Normal
05/05/2026 11 AM PDT 10.95 1970 0 Normal
05/05/2026 12 PM PDT 10.95 1970 0 Normal
05/05/2026 01 PM PDT 10.94 1957 - Normal
05/05/2026 02 PM PDT 10.94 1957 0 Normal
05/05/2026 03 PM PDT 10.93 1944 - Normal
05/05/2026 04 PM PDT 10.93 1944 0 Normal
05/05/2026 05 PM PDT 10.93 1944 0 Normal
05/05/2026 06 PM PDT 10.93 1944 0 Normal
05/05/2026 07 PM PDT 10.92 1931 - Normal
05/05/2026 08 PM PDT 10.92 1931 0 Normal
05/05/2026 09 PM PDT 10.92 1931 0 Normal
05/05/2026 10 PM PDT 10.92 1931 0 Normal
05/05/2026 11 PM PDT 10.92 1931 0 Normal
05/06/2026 12 AM PDT 10.92 1931 0 Normal
05/06/2026 01 AM PDT 10.92 1931 0 Normal
05/06/2026 02 AM PDT 10.91 1918 - Normal
05/06/2026 03 AM PDT 10.91 1918 0 Normal
05/06/2026 04 AM PDT 10.91 1918 0 Normal
05/06/2026 05 AM PDT 10.91 1918 0 Normal
05/06/2026 06 AM PDT 10.91 1918 0 Normal
05/06/2026 07 AM PDT 10.90 1905 - Normal
05/06/2026 08 AM PDT 10.90 1905 0 Normal
05/06/2026 09 AM PDT 10.90 1905 0 Normal
05/06/2026 10 AM PDT 10.89 1892 - Normal
05/06/2026 11 AM PDT 10.89 1892 0 Normal
05/06/2026 12 PM PDT 10.90 1905 + Normal
05/06/2026 01 PM PDT 10.89 1892 - Normal
05/06/2026 02 PM PDT 10.89 1892 0 Normal
05/06/2026 03 PM PDT 10.89 1892 0 Normal
05/06/2026 04 PM PDT 10.88 1879 - Normal
05/06/2026 05 PM PDT 10.87 1866 - Normal
05/06/2026 06 PM PDT 10.87 1866 0 Normal
05/06/2026 07 PM PDT 10.88 1879 + Normal
05/06/2026 08 PM PDT 10.88 1879 0 Normal
05/06/2026 09 PM PDT 10.88 1879 0 Normal
05/06/2026 10 PM PDT 10.87 1866 - Normal
05/06/2026 11 PM PDT 10.87 1866 0 Normal
05/07/2026 12 AM PDT 10.86 1853 - Normal
05/07/2026 01 AM PDT 10.86 1853 0 Normal
05/07/2026 02 AM PDT 10.86 1853 0 Normal
05/07/2026 03 AM PDT 10.85 1841 - Normal
05/07/2026 04 AM PDT 10.85 1841 0 Normal
05/07/2026 05 AM PDT 10.85 1841 0 Normal
05/07/2026 06 AM PDT 10.84 1828 - Normal
05/07/2026 07 AM PDT 10.84 1828 0 Normal
#
# FORECAST
#
# Date & Time (Local) Stage (Feet) Flow (cfs) Trend Forecast Status
# ---------------------------------------------------------------------------------
05/07/2026 08 AM PDT 10.83 1816 Normal
05/07/2026 09 AM PDT 10.83 1816 0 Normal
05/07/2026 10 AM PDT 10.82 1803 - Normal
05/07/2026 11 AM PDT 10.82 1803 0 Normal
05/07/2026 12 PM PDT 10.81 1790 - Normal
05/07/2026 01 PM PDT 10.81 1790 0 Normal
05/07/2026 02 PM PDT 10.80 1778 - Normal
05/07/2026 03 PM PDT 10.80 1778 0 Normal
05/07/2026 04 PM PDT 10.79 1766 - Normal
05/07/2026 05 PM PDT 10.79 1766 0 Normal
05/07/2026 06 PM PDT 10.79 1766 0 Normal
05/07/2026 07 PM PDT 10.78 1753 - Normal
05/07/2026 08 PM PDT 10.78 1753 0 Normal
05/07/2026 09 PM PDT 10.78 1753 0 Normal
05/07/2026 10 PM PDT 10.78 1753 0 Normal
05/07/2026 11 PM PDT 10.78 1753 0 Normal
05/08/2026 12 AM PDT 10.78 1753 0 Normal
05/08/2026 01 AM PDT 10.78 1753 0 Normal
05/08/2026 02 AM PDT 10.78 1753 0 Normal
05/08/2026 03 AM PDT 10.78 1753 0 Normal
05/08/2026 04 AM PDT 10.78 1753 0 Normal
05/08/2026 05 AM PDT 10.78 1753 0 Normal
05/08/2026 06 AM PDT 10.78 1753 0 Normal
05/08/2026 07 AM PDT 10.78 1753 0 Normal
05/08/2026 08 AM PDT 10.78 1753 0 Normal
05/08/2026 09 AM PDT 10.78 1753 0 Normal
05/08/2026 10 AM PDT 10.78 1753 0 Normal
05/08/2026 11 AM PDT 10.78 1753 0 Normal
05/08/2026 12 PM PDT 10.77 1741 - Normal
05/08/2026 01 PM PDT 10.77 1741 0 Normal
05/08/2026 02 PM PDT 10.77 1741 0 Normal
05/08/2026 03 PM PDT 10.77 1741 0 Normal
05/08/2026 04 PM PDT 10.76 1729 - Normal
05/08/2026 05 PM PDT 10.76 1729 0 Normal
05/08/2026 06 PM PDT 10.76 1729 0 Normal
05/08/2026 07 PM PDT 10.76 1729 0 Normal
05/08/2026 08 PM PDT 10.75 1717 - Normal
05/08/2026 09 PM PDT 10.75 1717 0 Normal
05/08/2026 10 PM PDT 10.75 1717 0 Normal
05/08/2026 11 PM PDT 10.74 1704 - Normal
05/09/2026 12 AM PDT 10.74 1704 0 Normal
05/09/2026 01 AM PDT 10.74 1704 0 Normal
05/09/2026 02 AM PDT 10.73 1692 - Normal
05/09/2026 03 AM PDT 10.73 1692 0 Normal
05/09/2026 04 AM PDT 10.73 1692 0 Normal
05/09/2026 05 AM PDT 10.73 1692 0 Normal
05/09/2026 06 AM PDT 10.72 1680 - Normal
05/09/2026 07 AM PDT 10.72 1680 0 Normal
05/09/2026 08 AM PDT 10.72 1680 0 Normal
05/09/2026 09 AM PDT 10.71 1668 - Normal
05/09/2026 10 AM PDT 10.71 1668 0 Normal
05/09/2026 11 AM PDT 10.71 1668 0 Normal
05/09/2026 12 PM PDT 10.71 1668 0 Normal
05/09/2026 01 PM PDT 10.70 1656 - Normal
05/09/2026 02 PM PDT 10.70 1656 0 Normal
05/09/2026 03 PM PDT 10.70 1656 0 Normal
05/09/2026 04 PM PDT 10.69 1644 - Normal
05/09/2026 05 PM PDT 10.69 1644 0 Normal
05/09/2026 06 PM PDT 10.69 1644 0 Normal
05/09/2026 07 PM PDT 10.69 1644 0 Normal
05/09/2026 08 PM PDT 10.68 1633 - Normal
05/09/2026 09 PM PDT 10.68 1633 0 Normal
05/09/2026 10 PM PDT 10.68 1633 0 Normal
05/09/2026 11 PM PDT 10.67 1621 - Normal
05/10/2026 12 AM PDT 10.67 1621 0 Normal
05/10/2026 01 AM PDT 10.67 1621 0 Normal
05/10/2026 02 AM PDT 10.66 1609 - Normal
05/10/2026 03 AM PDT 10.66 1609 0 Normal
05/10/2026 04 AM PDT 10.66 1609 0 Normal
05/10/2026 05 AM PDT 10.66 1609 0 Normal
05/10/2026 06 AM PDT 10.65 1597 - Normal
05/10/2026 07 AM PDT 10.65 1597 0 Normal
05/10/2026 08 AM PDT 10.65 1597 0 Normal
05/10/2026 09 AM PDT 10.64 1586 - Normal
05/10/2026 10 AM PDT 10.64 1586 0 Normal
05/10/2026 11 AM PDT 10.64 1586 0 Normal
05/10/2026 12 PM PDT 10.64 1586 0 Normal
05/10/2026 01 PM PDT 10.63 1574 - Normal
05/10/2026 02 PM PDT 10.63 1574 0 Normal
05/10/2026 03 PM PDT 10.63 1574 0 Normal
05/10/2026 04 PM PDT 10.63 1574 0 Normal
05/10/2026 05 PM PDT 10.62 1562 - Normal
05/10/2026 06 PM PDT 10.62 1562 0 Normal
05/10/2026 07 PM PDT 10.62 1562 0 Normal
05/10/2026 08 PM PDT 10.62 1562 0 Normal
05/10/2026 09 PM PDT 10.61 1551 - Normal
05/10/2026 10 PM PDT 10.61 1551 0 Normal
05/10/2026 11 PM PDT 10.61 1551 0 Normal
05/11/2026 12 AM PDT 10.60 1539 - Normal
05/11/2026 01 AM PDT 10.60 1539 0 Normal
05/11/2026 02 AM PDT 10.60 1539 0 Normal
05/11/2026 03 AM PDT 10.60 1539 0 Normal
05/11/2026 04 AM PDT 10.59 1528 - Normal
05/11/2026 05 AM PDT 10.59 1528 0 Normal
05/11/2026 06 AM PDT 10.59 1528 0 Normal
05/11/2026 07 AM PDT 10.59 1528 0 Normal
05/11/2026 08 AM PDT 10.58 1517 - Normal
05/11/2026 09 AM PDT 10.58 1517 0 Normal
05/11/2026 10 AM PDT 10.58 1517 0 Normal
05/11/2026 11 AM PDT 10.57 1505 - Normal
05/11/2026 12 PM PDT 10.57 1505 0 Normal
05/11/2026 01 PM PDT 10.57 1505 0 Normal
05/11/2026 02 PM PDT 10.57 1505 0 Normal
05/11/2026 03 PM PDT 10.56 1494 - Normal
05/11/2026 04 PM PDT 10.56 1494 0 Normal
05/11/2026 05 PM PDT 10.56 1494 0 Normal
05/11/2026 06 PM PDT 10.56 1494 0 Normal
05/11/2026 07 PM PDT 10.55 1483 - Normal
05/11/2026 08 PM PDT 10.55 1483 0 Normal
05/11/2026 09 PM PDT 10.55 1483 0 Normal
05/11/2026 10 PM PDT 10.55 1483 0 Normal
05/11/2026 11 PM PDT 10.54 1472 - Normal
05/12/2026 12 AM PDT 10.54 1472 0 Normal
05/12/2026 01 AM PDT 10.54 1472 0 Normal
05/12/2026 02 AM PDT 10.54 1472 0 Normal
05/12/2026 03 AM PDT 10.54 1472 0 Normal
05/12/2026 04 AM PDT 10.53 1461 - Normal
05/12/2026 05 AM PDT 10.53 1461 0 Normal
#
# NOTE 1: Stages are rounded to the nearest hundredth (.01) of a foot.
# NOTE 2: Flows are rounded to the nearest (1) cfs.
# NOTE 3: Trends are determined using hourly change in unrounded stage and flow.
# NOTE 4: Maximum Values are determined using unrounded stage and flow.
|